| time (UTC) | temp F | wind direction | speed MPH | gust MPH | rain 1hr in | rain 24hr in | rain mn in | humidity % | barometer mb |
| 20260504231536 | 74 | 180 | 3.0 | 7.0 | 0.00 | 0.00 | 0.00 | 41 | 1012.5 |
| 20260504231037 | 74 | 135 | 2.0 | 6.0 | 0.00 | 0.00 | 0.00 | 40 | 1012.5 |
| 20260504230802 | 75 | 170 | 2.0 | 7.0 | 0.00 | 0.00 | 0.00 | 40 | 1012.4 |
| 20260504230641 | 75 | 170 | 2.0 | 7.0 | 0.00 | 0.00 | 0.00 | 40 | 1012.4 |
| 20260504230036 | 75 | 157 | 3.0 | 9.0 | 0.00 | 0.00 | 0.00 | 39 | 1012.5 |
| 20260504225533 | 75 | 141 | 4.0 | 9.0 | 0.00 | 0.00 | 0.00 | 38 | 1012.5 |
| 20260504225252 | 75 | 178 | 3.0 | 9.0 | 0.00 | 0.00 | 0.00 | 38 | 1012.4 |
| 20260504225136 | 75 | 178 | 3.0 | 9.0 | 0.00 | 0.00 | 0.00 | 38 | 1012.4 |
| 20260504224529 | 76 | 145 | 2.0 | 7.0 | 0.00 | 0.00 | 0.00 | 38 | 1012.5 |
| 20260504224031 | 76 | 158 | 3.0 | 11.0 | 0.00 | 0.00 | 0.00 | 38 | 1012.5 |
| 20260504223530 | 76 | 238 | 4.0 | 11.0 | 0.00 | 0.00 | 0.00 | 38 | 1012.5 |
| 20260504223030 | 76 | 169 | 4.0 | 9.0 | 0.00 | 0.00 | 0.00 | 38 | 1012.5 |
| 20260504222529 | 76 | 185 | 4.0 | 11.0 | 0.00 | 0.00 | 0.00 | 37 | 1012.5 |
| 20260504222030 | 76 | 199 | 3.0 | 11.0 | 0.00 | 0.00 | 0.00 | 37 | 1012.5 |
| 20260504221530 | 77 | 163 | 3.0 | 8.0 | 0.00 | 0.00 | 0.00 | 38 | 1012.5 |
| 20260504221252 | 77 | 198 | 4.0 | 8.0 | 0.00 | 0.00 | 0.00 | 36 | 1012.5 |
| 20260504221134 | 77 | 198 | 4.0 | 8.0 | 0.00 | 0.00 | 0.00 | 36 | 1012.5 |
| 20260504220727 | 77 | 194 | 4.0 | 12.0 | 0.00 | 0.00 | 0.00 | 35 | 1012.4 |
| 20260504220609 | 77 | 187 | 3.0 | 7.0 | 0.00 | 0.00 | 0.00 | 36 | 1012.5 |
| 20260504220121 | 77 | 200 | 4.0 | 8.0 | 0.00 | 0.00 | 0.00 | 35 | 1012.5 |
| 20260504215635 | 77 | 194 | 4.0 | 12.0 | 0.00 | 0.00 | 0.00 | 35 | 1012.4 |
| 20260504215031 | 77 | 166 | 4.0 | 12.0 | 0.00 | 0.00 | 0.00 | 36 | 1012.5 |
| 20260504214528 | 77 | 199 | 4.0 | 11.0 | 0.00 | 0.00 | 0.00 | 35 | 1012.5 |
| 20260504214027 | 78 | 198 | 4.0 | 11.0 | 0.00 | 0.00 | 0.00 | 35 | 1012.5 |
| 20260504213751 | 78 | 193 | 4.0 | 11.0 | 0.00 | 0.00 | 0.00 | 34 | 1012.5 |
| 20260504213632 | 78 | 193 | 4.0 | 11.0 | 0.00 | 0.00 | 0.00 | 34 | 1012.5 |
| 20260504213028 | 78 | 225 | 4.0 | 11.0 | 0.00 | 0.00 | 0.00 | 34 | 1012.6 |
| 20260504212528 | 78 | 225 | 3.0 | 10.0 | 0.00 | 0.00 | 0.00 | 35 | 1012.5 |
| 20260504212028 | 79 | 233 | 2.0 | 8.0 | 0.00 | 0.00 | 0.00 | 33 | 1012.5 |
| 20260504211748 | 78 | 150 | 3.0 | 8.0 | 0.00 | 0.00 | 0.00 | 35 | 1012.6 |
| 20260504211632 | 78 | 150 | 3.0 | 8.0 | 0.00 | 0.00 | 0.00 | 35 | 1012.6 |
| 20260504211029 | 78 | 333 | 3.0 | 8.0 | 0.00 | 0.00 | 0.00 | 35 | 1012.5 |
| 20260504210528 | 78 | 214 | 3.0 | 8.0 | 0.00 | 0.00 | 0.00 | 35 | 1012.5 |
| 20260504210028 | 78 | 129 | 3.0 | 9.0 | 0.00 | 0.00 | 0.00 | 35 | 1012.6 |
| 20260504205527 | 78 | 144 | 4.0 | 10.0 | 0.00 | 0.00 | 0.00 | 34 | 1012.5 |
| 20260504205023 | 78 | 188 | 4.0 | 10.0 | 0.00 | 0.00 | 0.00 | 34 | 1012.5 |
| 20260504204524 | 78 | 179 | 4.0 | 12.0 | 0.00 | 0.00 | 0.00 | 36 | 1012.5 |
| 20260504204023 | 79 | 277 | 4.0 | 12.0 | 0.00 | 0.00 | 0.00 | 34 | 1012.6 |
| 20260504203523 | 79 | 265 | 3.0 | 9.0 | 0.00 | 0.00 | 0.00 | 35 | 1012.7 |
| 20260504203024 | 79 | 160 | 4.0 | 10.0 | 0.00 | 0.00 | 0.00 | 35 | 1012.7 |
| 20260504202524 | 78 | 162 | 5.0 | 11.0 | 0.00 | 0.00 | 0.00 | 35 | 1012.8 |
| 20260504202024 | 78 | 162 | 5.0 | 11.0 | 0.00 | 0.00 | 0.00 | 35 | 1012.8 |
| 20260504201524 | 79 | 156 | 5.0 | 13.0 | 0.00 | 0.00 | 0.00 | 34 | 1012.7 |
| 20260504201025 | 80 | 207 | 4.0 | 13.0 | 0.00 | 0.00 | 0.00 | 34 | 1012.9 |
| 20260504200525 | 80 | 153 | 3.0 | 9.0 | 0.00 | 0.00 | 0.00 | 35 | 1012.8 |
| 20260504200025 | 79 | 157 | 3.0 | 8.0 | 0.00 | 0.00 | 0.00 | 35 | 1012.8 |
| 20260504195524 | 80 | 190 | 3.0 | 7.0 | 0.00 | 0.00 | 0.00 | 36 | 1012.9 |
| 20260504195244 | 80 | 141 | 3.0 | 7.0 | 0.00 | 0.00 | 0.00 | 33 | 1012.8 |
| 20260504195124 | 80 | 141 | 3.0 | 7.0 | 0.00 | 0.00 | 0.00 | 33 | 1012.8 |
| 20260504194521 | 80 | 180 | 3.0 | 7.0 | 0.00 | 0.00 | 0.00 | 33 | 1012.9 |
| 20260504194021 | 80 | 199 | 3.0 | 9.0 | 0.00 | 0.00 | 0.00 | 31 | 1012.9 |
| 20260504193521 | 80 | 164 | 3.0 | 9.0 | 0.00 | 0.00 | 0.00 | 31 | 1013.0 |
| 20260504193021 | 80 | 161 | 3.0 | 8.0 | 0.00 | 0.00 | 0.00 | 31 | 1013.1 |
| 20260504192521 | 80 | 302 | 3.0 | 8.0 | 0.00 | 0.00 | 0.00 | 33 | 1013.3 |
| 20260504192021 | 80 | 142 | 2.0 | 6.0 | 0.00 | 0.00 | 0.00 | 34 | 1013.2 |
| 20260504191746 | 79 | 156 | 2.0 | 6.0 | 0.00 | 0.00 | 0.00 | 33 | 1013.3 |
| 20260504191626 | 79 | 156 | 2.0 | 6.0 | 0.00 | 0.00 | 0.00 | 33 | 1013.3 |
| 20260504191022 | 79 | 147 | 2.0 | 8.0 | 0.00 | 0.00 | 0.00 | 33 | 1013.3 |
| 20260504190521 | 79 | 252 | 4.0 | 8.0 | 0.00 | 0.00 | 0.00 | 33 | 1013.4 |
| 20260504190022 | 79 | 133 | 4.0 | 8.0 | 0.00 | 0.00 | 0.00 | 35 | 1013.3 |
| 20260504185521 | 79 | 248 | 4.0 | 9.0 | 0.00 | 0.00 | 0.00 | 35 | 1013.5 |
| 20260504185019 | 80 | 209 | 2.0 | 9.0 | 0.00 | 0.00 | 0.00 | 34 | 1013.6 |
| 20260504184519 | 80 | 74 | 2.0 | 6.0 | 0.00 | 0.00 | 0.00 | 35 | 1013.4 |
| 20260504184238 | 80 | 321 | 2.0 | 6.0 | 0.00 | 0.00 | 0.00 | 34 | 1013.5 |
| 20260504184123 | 80 | 321 | 2.0 | 6.0 | 0.00 | 0.00 | 0.00 | 34 | 1013.5 |
| 20260504183518 | 79 | 313 | 2.0 | 7.0 | 0.00 | 0.00 | 0.00 | 37 | 1013.6 |
| 20260504183018 | 79 | 119 | 2.0 | 7.0 | 0.00 | 0.00 | 0.00 | 35 | 1013.6 |
| 20260504182741 | 79 | 19 | 2.0 | 11.0 | 0.00 | 0.00 | 0.00 | 33 | 1013.6 |
| 20260504182623 | 79 | 19 | 2.0 | 11.0 | 0.00 | 0.00 | 0.00 | 33 | 1013.6 |
| 20260504182458 | 79 | 27 | 3.0 | 11.0 | 0.00 | 0.00 | 0.00 | 37 | 1013.7 |
| 20260504182124 | 79 | 27 | 3.0 | 11.0 | 0.00 | 0.00 | 0.00 | 37 | 1013.7 |
| 20260504181518 | 78 | 117 | 2.0 | 6.0 | 0.00 | 0.00 | 0.00 | 36 | 1013.6 |
| 20260504181018 | 78 | 0 | 2.0 | 7.0 | 0.00 | 0.00 | 0.00 | 37 | 1013.6 |
| 20260504180517 | 78 | 38 | 2.0 | 7.0 | 0.00 | 0.00 | 0.00 | 37 | 1013.7 |
| 20260504180017 | 78 | 205 | 3.0 | 10.0 | 0.00 | 0.00 | 0.00 | 38 | 1013.9 |
| 20260504175518 | 78 | 151 | 3.0 | 10.0 | 0.00 | 0.00 | 0.00 | 38 | 1014.1 |
| 20260504175014 | 78 | 133 | 3.0 | 10.0 | 0.00 | 0.00 | 0.00 | 36 | 1014.1 |
| 20260504174513 | 78 | 188 | 2.0 | 8.0 | 0.00 | 0.00 | 0.00 | 38 | 1014.2 |
| 20260504174457 | 78 | 305 | 2.0 | 5.0 | 0.00 | 0.00 | 0.00 | 39 | 1014.3 |
| 20260504174118 | 78 | 305 | 2.0 | 5.0 | 0.00 | 0.00 | 0.00 | 39 | 1014.3 |
| 20260504173737 | 78 | 289 | 2.0 | 7.0 | 0.00 | 0.00 | 0.00 | 38 | 1014.4 |
| 20260504173616 | 78 | 289 | 2.0 | 7.0 | 0.00 | 0.00 | 0.00 | 38 | 1014.4 |
| 20260504173012 | 77 | 298 | 2.0 | 7.0 | 0.00 | 0.00 | 0.00 | 40 | 1014.3 |
| 20260504173008 | 77 | 311 | 2.0 | 7.0 | 0.00 | 0.00 | 0.00 | 40 | 1014.3 |
| 20260504172512 | 77 | 226 | 3.0 | 7.0 | 0.00 | 0.00 | 0.00 | 40 | 1014.5 |
| 20260504172508 | 77 | 217 | 3.0 | 7.0 | 0.00 | 0.00 | 0.00 | 40 | 1014.5 |
| 20260504172013 | 76 | 143 | 4.0 | 9.0 | 0.00 | 0.00 | 0.00 | 40 | 1014.4 |
| 20260504172009 | 76 | 148 | 4.0 | 9.0 | 0.00 | 0.00 | 0.00 | 40 | 1014.4 |
| 20260504171512 | 76 | 62 | 4.0 | 9.0 | 0.00 | 0.00 | 0.00 | 40 | 1014.5 |
| 20260504171508 | 76 | 306 | 4.0 | 9.0 | 0.00 | 0.00 | 0.00 | 40 | 1014.5 |
| 20260504171227 | 76 | 166 | 2.0 | 9.0 | 0.00 | 0.00 | 0.00 | 42 | 1014.6 |
| 20260504171114 | 76 | 142 | 2.0 | 9.0 | 0.00 | 0.00 | 0.00 | 42 | 1014.6 |
| 20260504170509 | 76 | 158 | 2.0 | 9.0 | 0.00 | 0.00 | 0.00 | 40 | 1014.6 |
| 20260504150958 | 72 | 295 | 3.0 | 7.0 | 0.00 | 0.00 | 0.00 | 48 | 1015.6 |
| 20260504150456 | 72 | 158 | 2.0 | 7.0 | 0.00 | 0.00 | 0.00 | 51 | 1015.6 |
| 20260504140951 | 66 | 178 | 2.0 | 6.0 | 0.00 | 0.00 | 0.00 | 63 | 1016.0 |
| 20260504140448 | 65 | 228 | 2.0 | 6.0 | 0.00 | 0.00 | 0.00 | 64 | 1016.0 |
| 20260504130439 | 62 | 263 | 1.0 | 4.0 | 0.00 | 0.00 | 0.00 | 72 | 1016.2 |
| 20260504110404 | 46 | 302 | 1.0 | 2.0 | 0.00 | 0.00 | 0.00 | 98 | 1016.5 |
| 20260504100334 | 43 | 333 | 2.0 | 2.0 | 0.00 | 0.00 | 0.00 | 97 | 1016.4 |
| 20260504081800 | 43 | 323 | 1.0 | 2.0 | 0.00 | 0.00 | 0.00 | 94 | 1016.4 |
| 20260504081300 | 43 | 0 | 1.0 | 2.0 | 0.00 | 0.00 | 0.00 | 94 | 1016.4 |
| 20260504080807 | 43 | 0 | 1.0 | 2.0 | 0.00 | 0.00 | 0.00 | 93 | 1016.3 |
| 20260504080522 | 44 | 291 | 1.0 | 2.0 | 0.00 | 0.00 | 0.00 | 93 | 1016.4 |
| 20260504080404 | 44 | 291 | 1.0 | 2.0 | 0.00 | 0.00 | 0.00 | 93 | 1016.4 |
| 20260504070256 | 46 | 318 | 1.0 | 2.0 | 0.00 | 0.00 | 0.00 | 87 | 1016.4 |
| 20260504050748 | 43 | 4 | 1.0 | 2.0 | 0.00 | 0.00 | 0.00 | 96 | 1016.7 |
| 20260504050248 | 43 | 0 | 1.0 | 2.0 | 0.00 | 0.00 | 0.00 | 96 | 1016.7 |
| 20260504045749 | 43 | 354 | 1.0 | 2.0 | 0.00 | 0.00 | 0.00 | 96 | 1016.7 |
| 20260504045249 | 43 | 343 | 1.0 | 2.0 | 0.00 | 0.00 | 0.00 | 96 | 1016.7 |
| 20260504045005 | 44 | 338 | 1.0 | 2.0 | 0.00 | 0.00 | 0.00 | 96 | 1016.7 |
| 20260504044850 | 44 | 338 | 1.0 | 2.0 | 0.00 | 0.00 | 0.00 | 96 | 1016.7 |
| 20260504044246 | 44 | 302 | 0.0 | 2.0 | 0.00 | 0.00 | 0.00 | 95 | 1016.7 |
| 20260504044004 | 44 | 328 | 1.0 | 2.0 | 0.00 | 0.00 | 0.00 | 95 | 1016.7 |
| 20260504043850 | 44 | 328 | 1.0 | 2.0 | 0.00 | 0.00 | 0.00 | 95 | 1016.7 |
| 20260504043243 | 44 | 332 | 1.0 | 2.0 | 0.00 | 0.00 | 0.00 | 95 | 1016.7 |
| 20260504042743 | 44 | 309 | 1.0 | 2.0 | 0.00 | 0.00 | 0.00 | 95 | 1016.8 |
| 20260504042243 | 44 | 328 | 1.0 | 2.0 | 0.00 | 0.00 | 0.00 | 95 | 1016.8 |
| 20260504041743 | 44 | 331 | 1.0 | 2.0 | 0.00 | 0.00 | 0.00 | 95 | 1016.8 |
| 20260504041243 | 44 | 310 | 1.0 | 2.0 | 0.00 | 0.00 | 0.00 | 95 | 1016.9 |
| 20260504040743 | 44 | 316 | 1.0 | 2.0 | 0.00 | 0.00 | 0.00 | 94 | 1016.7 |
| 20260504040243 | 44 | 345 | 1.0 | 2.0 | 0.00 | 0.00 | 0.00 | 94 | 1016.7 |
| 20260504040010 | 44 | 314 | 1.0 | 2.0 | 0.00 | 0.00 | 0.00 | 94 | 1016.7 |
| 20260504035848 | 44 | 314 | 1.0 | 2.0 | 0.00 | 0.00 | 0.00 | 94 | 1016.7 |
| 20260504035243 | 45 | 330 | 1.0 | 2.0 | 0.00 | 0.00 | 0.00 | 94 | 1016.7 |
| 20260504034740 | 45 | 327 | 1.0 | 2.0 | 0.00 | 0.00 | 0.00 | 94 | 1016.7 |
| 20260504034240 | 45 | 336 | 1.0 | 2.0 | 0.00 | 0.00 | 0.00 | 94 | 1016.6 |
| 20260504033741 | 45 | 331 | 1.0 | 1.0 | 0.00 | 0.00 | 0.00 | 94 | 1016.5 |
| 20260504033241 | 45 | 341 | 1.0 | 2.0 | 0.00 | 0.00 | 0.00 | 93 | 1016.5 |
| 20260504032741 | 46 | 332 | 1.0 | 2.0 | 0.00 | 0.00 | 0.00 | 93 | 1016.4 |
| 20260504032241 | 46 | 287 | 1.0 | 2.0 | 0.00 | 0.00 | 0.00 | 94 | 1016.5 |
| 20260504031741 | 46 | 0 | 0.0 | 1.0 | 0.00 | 0.00 | 0.00 | 94 | 1016.5 |
| 20260504031238 | 46 | 334 | 0.0 | 2.0 | 0.00 | 0.00 | 0.00 | 94 | 1016.5 |
| 20260504030737 | 46 | 0 | 1.0 | 2.0 | 0.00 | 0.00 | 0.00 | 93 | 1016.5 |
| 20260504030237 | 46 | 321 | 1.0 | 2.0 | 0.00 | 0.00 | 0.00 | 93 | 1016.6 |
| 20260504025738 | 46 | 339 | 1.0 | 2.0 | 0.00 | 0.00 | 0.00 | 92 | 1016.6 |
| 20260504025236 | 46 | 336 | 1.0 | 2.0 | 0.00 | 0.00 | 0.00 | 92 | 1016.5 |
| 20260504024736 | 46 | 3 | 0.0 | 2.0 | 0.00 | 0.00 | 0.00 | 91 | 1016.5 |
| 20260504024238 | 46 | 0 | 1.0 | 2.0 | 0.00 | 0.00 | 0.00 | 91 | 1016.6 |
| 20260504023737 | 47 | 339 | 1.0 | 2.0 | 0.00 | 0.00 | 0.00 | 90 | 1016.5 |
| 20260504023236 | 47 | 349 | 1.0 | 2.0 | 0.00 | 0.00 | 0.00 | 89 | 1016.6 |
| 20260504022737 | 47 | 315 | 1.0 | 2.0 | 0.00 | 0.00 | 0.00 | 89 | 1016.6 |
| 20260504022237 | 47 | 348 | 1.0 | 3.0 | 0.00 | 0.00 | 0.00 | 88 | 1016.6 |
| 20260504021737 | 47 | 336 | 1.0 | 3.0 | 0.00 | 0.00 | 0.00 | 87 | 1016.6 |
| 20260504021237 | 48 | 335 | 1.0 | 3.0 | 0.00 | 0.00 | 0.00 | 87 | 1016.5 |
| 20260504020737 | 48 | 13 | 1.0 | 2.0 | 0.00 | 0.00 | 0.00 | 85 | 1016.5 |
| 20260504020237 | 48 | 5 | 1.0 | 2.0 | 0.00 | 0.00 | 0.00 | 83 | 1016.5 |
| 20260504015736 | 48 | 338 | 1.0 | 2.0 | 0.00 | 0.00 | 0.00 | 83 | 1016.4 |
| 20260504015233 | 49 | 10 | 1.0 | 2.0 | 0.00 | 0.00 | 0.00 | 81 | 1016.4 |
| 20260504014733 | 49 | 4 | 1.0 | 2.0 | 0.00 | 0.00 | 0.00 | 81 | 1016.3 |
| 20260504014235 | 49 | 347 | 1.0 | 1.0 | 0.00 | 0.00 | 0.00 | 80 | 1016.2 |
| 20260504013733 | 49 | 7 | 1.0 | 2.0 | 0.00 | 0.00 | 0.00 | 78 | 1016.2 |
| 20260504013234 | 50 | 348 | 1.0 | 2.0 | 0.00 | 0.00 | 0.00 | 77 | 1016.2 |
| 20260504012736 | 50 | 1 | 1.0 | 2.0 | 0.00 | 0.00 | 0.00 | 76 | 1016.1 |
| 20260504012731 | 50 | 6 | 1.0 | 2.0 | 0.00 | 0.00 | 0.00 | 76 | 1016.1 |
| 20260504012236 | 51 | 14 | 1.0 | 2.0 | 0.00 | 0.00 | 0.00 | 76 | 1016.0 |
| 20260504012231 | 51 | 3 | 1.0 | 2.0 | 0.00 | 0.00 | 0.00 | 76 | 1016.0 |
| 20260504011730 | 51 | 352 | 1.0 | 2.0 | 0.00 | 0.00 | 0.00 | 76 | 1016.0 |
| 20260504011236 | 51 | 349 | 1.0 | 2.0 | 0.00 | 0.00 | 0.00 | 75 | 1015.9 |
| 20260504011231 | 51 | 335 | 1.0 | 2.0 | 0.00 | 0.00 | 0.00 | 75 | 1015.9 |
| 20260504010736 | 51 | 344 | 1.0 | 2.0 | 0.00 | 0.00 | 0.00 | 73 | 1015.9 |
| 20260504010732 | 51 | 339 | 1.0 | 2.0 | 0.00 | 0.00 | 0.00 | 73 | 1015.9 |
| 20260504010500 | 52 | 330 | 1.0 | 2.0 | 0.00 | 0.00 | 0.00 | 70 | 1015.8 |
| 20260504010336 | 52 | 320 | 1.0 | 2.0 | 0.00 | 0.00 | 0.00 | 70 | 1015.8 |
| 20260504005733 | 52 | 323 | 1.0 | 2.0 | 0.00 | 0.00 | 0.00 | 66 | 1015.7 |
| 20260504005729 | 52 | 333 | 1.0 | 2.0 | 0.00 | 0.00 | 0.00 | 66 | 1015.7 |
| 20260504005446 | 52 | 323 | 1.0 | 2.0 | 0.00 | 0.00 | 0.00 | 64 | 1015.6 |
| 20260504005333 | 52 | 323 | 1.0 | 2.0 | 0.00 | 0.00 | 0.00 | 64 | 1015.6 |
| 20260504004731 | 53 | 314 | 1.0 | 2.0 | 0.00 | 0.00 | 0.00 | 63 | 1015.5 |
| 20260504004725 | 53 | 317 | 1.0 | 2.0 | 0.00 | 0.00 | 0.00 | 63 | 1015.5 |
| 20260504004231 | 53 | 319 | 1.0 | 2.0 | 0.00 | 0.00 | 0.00 | 61 | 1015.5 |
| 20260504004227 | 53 | 318 | 1.0 | 2.0 | 0.00 | 0.00 | 0.00 | 61 | 1015.5 |
| 20260504003733 | 54 | 297 | 1.0 | 2.0 | 0.00 | 0.00 | 0.00 | 58 | 1015.5 |
| 20260504003728 | 54 | 289 | 1.0 | 2.0 | 0.00 | 0.00 | 0.00 | 58 | 1015.5 |
| 20260504003233 | 54 | 313 | 1.0 | 2.0 | 0.00 | 0.00 | 0.00 | 57 | 1015.4 |
| 20260504003228 | 54 | 306 | 1.0 | 2.0 | 0.00 | 0.00 | 0.00 | 57 | 1015.4 |
| 20260504003215 | 55 | 334 | 1.0 | 2.0 | 0.00 | 0.00 | 0.00 | 53 | 1015.4 |
| 20260504002833 | 55 | 324 | 1.0 | 2.0 | 0.00 | 0.00 | 0.00 | 53 | 1015.4 |
| 20260504002232 | 55 | 321 | 1.0 | 2.0 | 0.00 | 0.00 | 0.00 | 53 | 1015.3 |
| 20260504002226 | 55 | 314 | 1.0 | 2.0 | 0.00 | 0.00 | 0.00 | 53 | 1015.3 |
| 20260504001946 | 56 | 333 | 1.0 | 2.0 | 0.00 | 0.00 | 0.00 | 52 | 1015.2 |
| 20260504001833 | 56 | 321 | 1.0 | 2.0 | 0.00 | 0.00 | 0.00 | 52 | 1015.2 |
| 20260504001233 | 56 | 321 | 1.0 | 2.0 | 0.00 | 0.00 | 0.00 | 52 | 1015.2 |
| 20260504001228 | 56 | 315 | 1.0 | 2.0 | 0.00 | 0.00 | 0.00 | 52 | 1015.2 |
| 20260504000732 | 56 | 255 | 1.0 | 2.0 | 0.00 | 0.00 | 0.00 | 50 | 1015.1 |
| 20260504000727 | 56 | 0 | 1.0 | 2.0 | 0.00 | 0.00 | 0.00 | 50 | 1015.1 |
| 20260504000226 | 57 | 329 | 1.0 | 2.0 | 0.00 | 0.00 | 0.00 | 50 | 1015.1 |
| 20260503235730 | 58 | 261 | 1.0 | 2.0 | 0.00 | 0.00 | 0.00 | 49 | 1015.0 |
| 20260503235724 | 58 | 240 | 1.0 | 2.0 | 0.00 | 0.00 | 0.00 | 49 | 1015.0 |
| 20260503235227 | 58 | 318 | 1.0 | 2.0 | 0.00 | 0.00 | 0.00 | 49 | 1015.1 |
| 20260503235222 | 58 | 295 | 1.0 | 2.0 | 0.00 | 0.00 | 0.00 | 49 | 1015.1 |
| 20260503234725 | 58 | 130 | 1.0 | 2.0 | 0.00 | 0.00 | 0.00 | 47 | 1015.1 |
| 20260503234717 | 58 | 323 | 1.0 | 2.0 | 0.00 | 0.00 | 0.00 | 47 | 1015.1 |
| 20260503234225 | 59 | 276 | 2.0 | 3.0 | 0.00 | 0.00 | 0.00 | 47 | 1015.1 |
| 20260503234218 | 59 | 296 | 2.0 | 3.0 | 0.00 | 0.00 | 0.00 | 47 | 1015.1 |
| 20260503233724 | 59 | 258 | 2.0 | 3.0 | 0.00 | 0.00 | 0.00 | 45 | 1015.1 |
| 20260503233718 | 59 | 269 | 2.0 | 3.0 | 0.00 | 0.00 | 0.00 | 45 | 1015.1 |
| 20260503233224 | 60 | 287 | 2.0 | 3.0 | 0.00 | 0.00 | 0.00 | 44 | 1015.0 |
| 20260503233218 | 60 | 299 | 2.0 | 3.0 | 0.00 | 0.00 | 0.00 | 44 | 1015.0 |
| 20260503232725 | 60 | 297 | 2.0 | 3.0 | 0.00 | 0.00 | 0.00 | 44 | 1015.1 |
| 20260503232717 | 60 | 298 | 2.0 | 3.0 | 0.00 | 0.00 | 0.00 | 44 | 1015.1 |
| 20260503232223 | 61 | 290 | 1.0 | 2.0 | 0.00 | 0.00 | 0.00 | 43 | 1015.0 |
| 20260503232216 | 61 | 182 | 1.0 | 2.0 | 0.00 | 0.00 | 0.00 | 43 | 1015.0 |
| 20260503231726 | 61 | 257 | 1.0 | 2.0 | 0.00 | 0.00 | 0.00 | 43 | 1015.1 |
| 20260503231718 | 61 | 254 | 1.0 | 2.0 | 0.00 | 0.00 | 0.00 | 43 | 1015.1 |